Location: Islay
(41.3172°N, 105.1346°W)
Time: 19:22:37
(UTC+00:00)

ACS3 Solar Sail - Pass Details

Date: 27 April 2026
Orbit: 894 x 947 km, 97.2° (Epoch: 12 May)

Event Time Altitude Azimuth Distance (km) Brightness Sun altitude
Rises 08:54:05 0° 3° (N) 3,564 5.6 -28.6°
Reaches altitude 10° 08:56:39 10° 356° (N) 2,625 4.7 -28.4°
Enters shadow 09:01:50 38° 294° (WNW) 1,395 2.5 -27.8°
